Time,TemperatureF,DewpointF,PressureIn,WindDirection,WindDirectionDegrees,WindSpeedMPH,WindSpeedGustMPH,Humidity,HourlyPrecipIn,Conditions,Clouds,dailyrainin,SoftwareType,DateUTC
2013-06-29 00:12:00,58.7,46.0,29.70,SSE,159,7.0,-999.0,64,-99.99,,,0.00,weatherlink.com 1.10,2013-06-29 06:12:00,
2013-06-29 00:27:00,58.3,46.0,29.70,SSE,155,5.0,-999.0,65,-99.99,,,0.00,weatherlink.com 1.10,2013-06-29 06:27:00,
2013-06-29 00:42:00,58.0,47.0,29.69,South,173,2.0,-999.0,66,-99.99,,,0.00,weatherlink.com 1.10,2013-06-29 06:42:00,
2013-06-29 00:59:00,58.0,46.0,29.69,South,173,0.0,-999.0,64,-99.99,,,0.00,weatherlink.com 1.10,2013-06-29 06:59:00,
2013-06-29 01:13:00,58.1,46.0,29.69,South,173,0.0,-999.0,64,-99.99,,,0.00,weatherlink.com 1.10,2013-06-29 07:13:00,
2013-06-29 01:28:00,58.2,46.0,29.68,South,173,1.0,-999.0,64,-99.99,,,0.00,weatherlink.com 1.10,2013-06-29 07:28:00,
2013-06-29 01:43:00,58.1,46.0,29.68,South,173,0.0,-999.0,64,-99.99,,,0.00,weatherlink.com 1.10,2013-06-29 07:43:00,
2013-06-29 01:58:00,57.8,46.0,29.68,South,173,0.0,-999.0,64,-99.99,,,0.00,weatherlink.com 1.10,2013-06-29 07:58:00,
2013-06-29 02:13:00,57.6,46.0,29.69,South,173,2.0,-999.0,66,-99.99,,,0.00,weatherlink.com 1.10,2013-06-29 08:13:00,
2013-06-29 02:28:00,57.4,46.0,29.69,South,173,0.0,-999.0,66,-99.99,,,0.00,weatherlink.com 1.10,2013-06-29 08:28:00,
2013-06-29 02:43:00,58.3,46.0,29.69,South,173,1.0,-999.0,63,-99.99,,,0.00,weatherlink.com 1.10,2013-06-29 08:43:00,
2013-06-29 02:58:00,58.5,45.0,29.68,South,173,6.0,-999.0,62,-99.99,,,0.00,weatherlink.com 1.10,2013-06-29 08:58:00,
2013-06-29 03:13:00,58.5,45.0,29.69,South,173,0.0,-999.0,61,-99.99,,,0.00,weatherlink.com 1.10,2013-06-29 09:13:00,
2013-06-29 03:28:00,58.7,45.0,29.69,South,173,2.0,-999.0,61,-99.99,,,0.00,weatherlink.com 1.10,2013-06-29 09:28:00,
2013-06-29 03:43:00,58.9,44.0,29.69,South,173,0.0,-999.0,59,-99.99,,,0.00,weatherlink.com 1.10,2013-06-29 09:43:00,
2013-06-29 03:58:00,57.9,44.0,29.69,South,173,0.0,-999.0,61,-99.99,,,0.00,weatherlink.com 1.10,2013-06-29 09:58:00,
2013-06-29 04:14:00,58.0,44.0,29.69,South,173,0.0,-999.0,61,-99.99,,,0.00,weatherlink.com 1.10,2013-06-29 10:14:00,
2013-06-29 04:29:00,58.6,44.0,29.69,South,173,0.0,-999.0,59,-99.99,,,0.00,weatherlink.com 1.10,2013-06-29 10:29:00,
2013-06-29 04:44:00,59.2,44.0,29.70,South,173,0.0,-999.0,58,-99.99,,,0.00,weatherlink.com 1.10,2013-06-29 10:44:00,
2013-06-29 04:59:00,59.6,45.0,29.70,South,173,0.0,-999.0,58,-99.99,,,0.00,weatherlink.com 1.10,2013-06-29 10:59:00,
2013-06-29 05:14:00,59.5,44.0,29.70,South,173,2.0,-999.0,58,-99.99,,,0.00,weatherlink.com 1.10,2013-06-29 11:14:00,
2013-06-29 05:29:00,59.5,44.0,29.70,South,173,4.0,-999.0,58,-99.99,,,0.00,weatherlink.com 1.10,2013-06-29 11:29:00,
2013-06-29 05:44:00,59.5,44.0,29.70,South,173,4.0,-999.0,58,-99.99,,,0.00,weatherlink.com 1.10,2013-06-29 11:44:00,
2013-06-29 05:59:00,59.6,45.0,29.70,South,173,2.0,-999.0,59,-99.99,,,0.00,weatherlink.com 1.10,2013-06-29 11:59:00,
2013-06-29 06:14:00,60.4,45.0,29.70,South,173,2.0,-999.0,57,-99.99,,,0.00,weatherlink.com 1.10,2013-06-29 12:14:00,
2013-06-29 06:29:00,60.8,45.0,29.70,South,172,2.0,-999.0,57,-99.99,,,0.00,weatherlink.com 1.10,2013-06-29 12:29:00,
2013-06-29 06:45:00,62.4,44.0,29.70,NE,42,0.0,-999.0,51,-99.99,,,0.00,weatherlink.com 1.10,2013-06-29 12:45:00,
2013-06-29 07:00:00,63.7,43.0,29.70,NE,42,0.0,-999.0,48,-99.99,,,0.00,weatherlink.com 1.10,2013-06-29 13:00:00,
2013-06-29 07:15:00,64.6,43.0,29.71,NE,42,0.0,-999.0,46,-99.99,,,0.00,weatherlink.com 1.10,2013-06-29 13:15:00,
2013-06-29 07:30:00,65.1,43.0,29.71,NE,42,2.0,-999.0,45,-99.99,,,0.00,weatherlink.com 1.10,2013-06-29 13:30:00,
2013-06-29 07:45:00,65.4,44.0,29.71,NE,42,4.0,-999.0,46,-99.99,,,0.00,weatherlink.com 1.10,2013-06-29 13:45:00,
2013-06-29 08:00:00,65.2,45.0,29.71,NE,42,0.0,-999.0,48,-99.99,,,0.00,weatherlink.com 1.10,2013-06-29 14:00:00,
2013-06-29 08:15:00,65.5,47.0,29.71,NE,42,0.0,-999.0,52,-99.99,,,0.00,weatherlink.com 1.10,2013-06-29 14:15:00,
2013-06-29 08:30:00,65.5,46.0,29.71,NE,42,3.0,-999.0,50,-99.99,,,0.00,weatherlink.com 1.10,2013-06-29 14:30:00,
2013-06-29 08:45:00,65.8,46.0,29.71,NNE,26,3.0,-999.0,50,-99.99,,,0.00,weatherlink.com 1.10,2013-06-29 14:45:00,
2013-06-29 09:00:00,65.1,45.0,29.71,NNE,19,1.0,-999.0,48,-99.99,,,0.00,weatherlink.com 1.10,2013-06-29 15:00:00,
2013-06-29 09:15:00,64.5,45.0,29.71,North,360,6.0,-999.0,50,-99.99,,,0.00,weatherlink.com 1.10,2013-06-29 15:15:00,
2013-06-29 09:31:00,64.2,47.0,29.71,NNW,340,1.0,-999.0,53,-99.99,,,0.00,weatherlink.com 1.10,2013-06-29 15:31:00,
2013-06-29 09:46:00,64.4,46.0,29.71,North,351,2.0,-999.0,51,-99.99,,,0.00,weatherlink.com 1.10,2013-06-29 15:46:00,
2013-06-29 10:01:00,64.8,46.0,29.71,North,5,4.0,-999.0,50,-99.99,,,0.00,weatherlink.com 1.10,2013-06-29 16:01:00,
2013-06-29 10:16:00,66.0,46.0,29.71,East,87,1.0,-999.0,49,-99.99,,,0.00,weatherlink.com 1.10,2013-06-29 16:16:00,
2013-06-29 10:31:00,66.5,43.0,29.71,North,360,4.0,-999.0,43,-99.99,,,0.00,weatherlink.com 1.10,2013-06-29 16:31:00,
2013-06-29 10:46:00,68.4,45.0,29.71,North,360,6.0,-999.0,43,-99.99,,,0.00,weatherlink.com 1.10,2013-06-29 16:46:00,
2013-06-29 11:01:00,68.7,46.0,29.71,NE,46,1.0,-999.0,44,-99.99,,,0.00,weatherlink.com 1.10,2013-06-29 17:01:00,
2013-06-29 11:16:00,68.0,45.0,29.71,NE,42,3.0,-999.0,43,-99.99,,,0.00,weatherlink.com 1.10,2013-06-29 17:16:00,
2013-06-29 11:31:00,68.3,45.0,29.70,NNE,21,1.0,-999.0,44,-99.99,,,0.00,weatherlink.com 1.10,2013-06-29 17:31:00,
2013-06-29 11:46:00,69.7,46.0,29.71,North,11,8.0,-999.0,43,-99.99,,,0.00,weatherlink.com 1.10,2013-06-29 17:46:00,
2013-06-29 12:01:00,68.0,43.0,29.70,North,355,5.0,-999.0,41,-99.99,,,0.00,weatherlink.com 1.10,2013-06-29 18:01:00,
2013-06-29 12:16:00,70.6,43.0,29.70,North,5,4.0,-999.0,37,-99.99,,,0.00,weatherlink.com 1.10,2013-06-29 18:16:00,
2013-06-29 12:32:00,70.7,44.0,29.70,NNE,22,4.0,-999.0,39,-99.99,,,0.00,weatherlink.com 1.10,2013-06-29 18:32:00,
2013-06-29 12:47:00,70.1,45.0,29.69,NNE,16,7.0,-999.0,40,-99.99,,,0.00,weatherlink.com 1.10,2013-06-29 18:47:00,
2013-06-29 13:02:00,72.9,45.0,29.69,South,190,1.0,-999.0,37,-99.99,,,0.00,weatherlink.com 1.10,2013-06-29 19:02:00,
2013-06-29 13:17:00,72.9,45.0,29.69,NNW,329,9.0,-999.0,37,-99.99,,,0.00,weatherlink.com 1.10,2013-06-29 19:17:00,
2013-06-29 13:32:00,71.7,45.0,29.68,NNE,32,3.0,-999.0,38,-99.99,,,0.00,weatherlink.com 1.10,2013-06-29 19:32:00,
2013-06-29 13:47:00,72.3,43.0,29.69,North,5,2.0,-999.0,35,-99.99,,,0.00,weatherlink.com 1.10,2013-06-29 19:47:00,
2013-06-29 14:02:00,74.2,43.0,29.68,NW,317,3.0,-999.0,33,-99.99,,,0.00,weatherlink.com 1.10,2013-06-29 20:02:00,
2013-06-29 14:17:00,73.1,42.0,29.68,North,5,6.0,-999.0,33,-99.99,,,0.00,weatherlink.com 1.10,2013-06-29 20:17:00,
2013-06-29 14:32:00,72.6,41.0,29.68,NE,38,9.0,-999.0,32,-99.99,,,0.00,weatherlink.com 1.10,2013-06-29 20:32:00,
2013-06-29 14:47:00,74.0,39.0,29.68,NNW,327,4.0,-999.0,28,-99.99,,,0.00,weatherlink.com 1.10,2013-06-29 20:47:00,
2013-06-29 15:02:00,74.6,37.0,29.68,NNW,330,4.0,-999.0,26,-99.99,,,0.00,weatherlink.com 1.10,2013-06-29 21:02:00,
2013-06-29 15:18:00,75.7,34.0,29.68,NNE,30,4.0,-999.0,22,-99.99,,,0.00,weatherlink.com 1.10,2013-06-29 21:18:00,
2013-06-29 15:33:00,73.7,37.0,29.68,NNW,345,9.0,-999.0,26,-99.99,,,0.00,weatherlink.com 1.10,2013-06-29 21:33:00,
2013-06-29 15:48:00,74.5,35.0,29.68,NNW,336,4.0,-999.0,24,-99.99,,,0.00,weatherlink.com 1.10,2013-06-29 21:48:00,
2013-06-29 16:03:00,73.5,37.0,29.68,North,349,1.0,-999.0,27,-99.99,,,0.00,weatherlink.com 1.10,2013-06-29 22:03:00,
2013-06-29 16:18:00,73.9,37.0,29.68,NNE,31,4.0,-999.0,26,-99.99,,,0.00,weatherlink.com 1.10,2013-06-29 22:18:00,
2013-06-29 16:33:00,74.0,36.0,29.68,North,355,5.0,-999.0,25,-99.99,,,0.00,weatherlink.com 1.10,2013-06-29 22:33:00,
2013-06-29 16:48:00,74.3,45.0,29.67,NNW,340,1.0,-999.0,35,-99.99,,,0.00,weatherlink.com 1.10,2013-06-29 22:48:00,
2013-06-29 17:03:00,71.9,46.0,29.65,South,172,4.0,-999.0,39,-99.99,,,0.00,weatherlink.com 1.10,2013-06-29 23:03:00,
2013-06-29 17:18:00,71.2,46.0,29.65,NE,49,5.0,-999.0,41,-99.99,,,0.00,weatherlink.com 1.10,2013-06-29 23:18:00,
2013-06-29 17:33:00,71.6,46.0,29.65,SE,140,5.0,-999.0,40,-99.99,,,0.00,weatherlink.com 1.10,2013-06-29 23:33:00,
2013-06-29 17:48:00,70.4,46.0,29.65,WNW,296,4.0,-999.0,42,-99.99,,,0.00,weatherlink.com 1.10,2013-06-29 23:48:00,
2013-06-29 18:03:00,69.9,46.0,29.64,South,169,6.0,-999.0,43,-99.99,,,0.00,weatherlink.com 1.10,2013-06-30 00:03:00,
2013-06-29 18:19:00,69.3,46.0,29.65,East,88,7.0,-999.0,43,-99.99,,,0.00,weatherlink.com 1.10,2013-06-30 00:19:00,
2013-06-29 18:34:00,67.6,45.0,29.65,South,174,7.0,-999.0,44,-99.99,,,0.00,weatherlink.com 1.10,2013-06-30 00:34:00,
2013-06-29 18:49:00,65.9,45.0,29.65,NE,53,0.0,-999.0,47,-99.99,,,0.00,weatherlink.com 1.10,2013-06-30 00:49:00,
2013-06-29 19:04:00,65.9,45.0,29.65,South,180,4.0,-999.0,48,-99.99,,,0.00,weatherlink.com 1.10,2013-06-30 01:04:00,
2013-06-29 19:19:00,65.6,45.0,29.65,SSW,202,2.0,-999.0,48,-99.99,,,0.00,weatherlink.com 1.10,2013-06-30 01:19:00,
2013-06-29 19:34:00,64.1,45.0,29.65,SW,235,3.0,-999.0,50,-99.99,,,0.00,weatherlink.com 1.10,2013-06-30 01:34:00,
2013-06-29 19:49:00,63.0,45.0,29.65,SSW,201,7.0,-999.0,52,-99.99,,,0.00,weatherlink.com 1.10,2013-06-30 01:49:00,
2013-06-29 20:04:00,62.0,48.0,29.66,ENE,76,4.0,-999.0,60,-99.99,,,0.00,weatherlink.com 1.10,2013-06-30 02:04:00,
2013-06-29 20:19:00,57.6,45.0,29.67,North,5,7.0,-999.0,64,-99.99,,,0.01,weatherlink.com 1.10,2013-06-30 02:19:00,
2013-06-29 20:34:00,57.7,42.0,29.68,NE,47,0.0,-999.0,56,-99.99,,,0.02,weatherlink.com 1.10,2013-06-30 02:34:00,
2013-06-29 20:49:00,57.6,43.0,29.68,ENE,74,2.0,-999.0,58,-99.99,,,0.02,weatherlink.com 1.10,2013-06-30 02:49:00,
2013-06-29 21:04:00,57.5,45.0,29.68,NE,51,2.0,-999.0,63,-99.99,,,0.02,weatherlink.com 1.10,2013-06-30 03:04:00,
2013-06-29 21:19:00,57.7,43.0,29.69,East,80,4.0,-999.0,59,-99.99,,,0.02,weatherlink.com 1.10,2013-06-30 03:19:00,
2013-06-29 21:35:00,57.6,43.0,29.69,ESE,105,2.0,-999.0,59,-99.99,,,0.02,weatherlink.com 1.10,2013-06-30 03:35:00,
2013-06-29 21:50:00,58.0,43.0,29.69,NNE,24,6.0,-999.0,57,-99.99,,,0.02,weatherlink.com 1.10,2013-06-30 03:50:00,
2013-06-29 22:05:00,57.8,44.0,29.71,East,79,1.0,-999.0,60,-99.99,,,0.02,weatherlink.com 1.10,2013-06-30 04:05:00,
2013-06-29 22:20:00,57.6,44.0,29.71,NE,34,7.0,-999.0,62,-99.99,,,0.02,weatherlink.com 1.10,2013-06-30 04:20:00,
2013-06-29 22:35:00,57.1,45.0,29.71,ESE,114,1.0,-999.0,64,-99.99,,,0.02,weatherlink.com 1.10,2013-06-30 04:35:00,
2013-06-29 22:50:00,56.9,45.0,29.72,ESE,115,1.0,-999.0,64,-99.99,,,0.02,weatherlink.com 1.10,2013-06-30 04:50:00,
2013-06-29 23:05:00,57.0,45.0,29.73,ENE,76,3.0,-999.0,64,-99.99,,,0.02,weatherlink.com 1.10,2013-06-30 05:05:00,
2013-06-29 23:20:00,57.5,44.0,29.71,ENE,77,2.0,-999.0,62,-99.99,,,0.02,weatherlink.com 1.10,2013-06-30 05:20:00,
2013-06-29 23:35:00,57.1,44.0,29.71,NNE,24,2.0,-999.0,63,-99.99,,,0.02,weatherlink.com 1.10,2013-06-30 05:35:00,
2013-06-29 23:50:00,56.4,45.0,29.71,ENE,58,0.0,-999.0,66,-99.99,,,0.02,weatherlink.com 1.10,2013-06-30 05:50:00,